Погода в Каркалае

Россия / Удмуртская Республика     56°59′04″N   52°22′39″E
темп.,
°C
ветер,
м/с
пор.,
м/с
влажн.,
%
обл.,
%
осадки,
мм/ч
давл.,
гПа
погр.,
м
13 мая, чт
чт1301:00+15ююв11640 0.0 102711
04:00+14вюв11630 0.0 102710
07:00+19юв23520 0.0 1027120
10:00+24ююв35350 0.0 10261237
13:00+26ю45254 0.0 10262099
16:00+26ю46265 0.0 10252079
19:00+22ююв25461 0.0 1024111
22:00+17юв22565 0.0 102432
14 мая, пт
пт1401:00+16ююв256041 0.0 102486
04:00+15юв236758 0.0 102446
07:00+19ююв3105613 0.0 1023290
10:00+25ю593617 0.0 1022941
13:00+26ююз5836100 0.1 10221447
16:00+27юз583851 0.1 10212026
19:00+24юз3856100 0.0 1021344
22:00+18ююз227513 0.0 102128
15 мая, сб
сб1501:00+16ююз287191 0.0 1021141
04:00+15ююз277275 0.0 1021122
07:00+19ююз375825 0.0 1021246
10:00+24ююз4738100 0.0 1021661
13:00+27юз5731100 0.0 10201059
16:00+28юз4729100 0.0 10201412
19:00+24ююз3849100 0.0 1019220
22:00+18ююз286361 0.0 1019128
16 мая, вс
вс1601:00+16ююз3116210 0.0 1019187
04:00+15ююз28635 0.0 1019138
07:00+20ююз3105332 0.0 1019278
10:00+26ююз48365 0.0 1018773
13:00+29юз69279 0.0 10182789
16:00+29юз582724 0.0 10173058
19:00+25ююз3843100 0.0 1016239
22:00+19ююз3960100 0.0 1016173
17 мая, пн
пн1701:00+17юз2771100 0.0 1016125
04:00+15зюз257898 0.0 101795
07:00+19юз376790 0.0 1017241
10:00+25зюз475067 0.0 10171099
13:00+27зюз583670 0.0 10162370
16:00+28з593577 0.0 10162817
19:00+23сз384520 0.0 1017364
22:00+17ссз22725 0.0 101818